Skip Page Navigation
NASA JPL Caltech
NASA Logo - Jet Propulsion Laboratory + View the NASA Portal
+ Center for Near-Earth Object Studies
JPL Home Earth Solar System Stars & Galaxies Technology
JPL Solar System Dynamics
BODIES ORBITS EPHEMERIDES TOOLS PHYSICAL DATA DISCOVERY FAQ SITE MAP
JPL Small-Body Database Browser
Search: [ help ]  
24426 (2000 CR12)
Classification: Jupiter Trojan          SPK-ID: 2024426
Ephemeris | Orbit Diagram | Orbital Elements | Mission Design | Physical Parameters | Discovery Circumstances ]

[ hide orbit diagram ]

For accurate long-term ephemerides, please instead use our Horizons system.This orbit viewer was implemented using two-body methods, and hence should not be used for determining accurate long-term trajectories (over several years or decades) or planetary encounter circumstances.


Orbital Elements at Epoch 2459396.5 (2021-Jul-01.0) TDB
Reference: JPL 23 (heliocentric ecliptic J2000)
 Element Value Uncertainty (1-sigma)   Units 
e .08511501386260099 5.0738e-08  
a 5.290222233647094 1.0518e-07 au
q 4.839944894893981 3.3438e-07 au
i 7.36086721518626 5.6519e-06 deg
node 185.7077756126018 3.02e-05 deg
peri 236.3567479095955 4.4263e-05 deg
M 334.6453957963512 3.435e-05 deg
tp 2459709.513908989764
(2022-May-10.01390899)
0.00042632 TDB
period 4444.360729563205
12.17
0.00013254
3.629e-07
d
yr
n .08100152573244905 2.4157e-09 deg/d
Q 5.740499572400205 1.1413e-07 au
  Orbit Determination Parameters
   # obs. used (total)      792  
   data-arc span      8877 days (24.30 yr)  
   first obs. used      1996-10-13  
   last obs. used      2021-02-01  
   planetary ephem.      DE441  
   SB-pert. ephem.      SB441-N16  
   condition code      0  
   norm. resid. RMS      .56609  
   source      ORB  
   producer      Otto Matic  
   solution date      2021-Apr-13 04:42:06  

Additional Information
 Earth MOID = 3.85922 au 
 Jupiter MOID = .00599389 au 
 T_jup = 2.976 
[ show covariance matrix ]

Ephemeris | Orbit Diagram | Orbital Elements | Mission Design | Physical Parameters | Discovery Circumstances ]

Physical Parameter Table
Parameter Symbol Value Units Sigma Reference Notes
absolute magnitude H 12.17   n/a E2021B10  
diameter diameter 14.336 km 1.007 urn:nasa:pds:neowise_diameters_albedos::2.0[jupiter_trojans] (http://adsabs.harvard.edu/abs/2012ApJ...759...49G)  
geometric albedo albedo 0.136   0.044 urn:nasa:pds:neowise_diameters_albedos::2.0[jupiter_trojans] (http://adsabs.harvard.edu/abs/2012ApJ...759...49G)  

24426 (2000 CR12)          Discovered 2000-Feb-02 by LINEAR at Socorro
Reference: 20010408/Numbers.arcLast Updated: 2004-04-19

Alternate Designations
 2000 CR12 = 1996 TG65 = 1997 XV13 
Ephemeris | Orbit Diagram | Orbital Elements | Mission Design | Physical Parameters | Discovery Circumstances ]
ABOUT SSD CREDITS/AWARDS PRIVACY/COPYRIGHT GLOSSARY LINKS
FirstGov 2021-Aug-04 20:38 UT
(server date/time)  
NASA Home Page
Site Manager:   Ryan S. Park
Webmaster  Alan B. Chamberlin